Location: Northam
(31.6525°S, 116.6655°E)
Time: 12:52:27
(UTC+08:00)

X-37B - Visible Passes

Search period start: 28 July 2021 00:00
Search period end: 07 August 2021 00:00
Orbit: 383 x 392 km, 45.0° (Epoch: 01 July)

Date Brightness Start Highest point End Pass type
(mag) Time Alt. Az. Time Alt. Az. Time Alt. Az.
29 Jul 3.2 18:14:39 10° SW 18:16:19 13° SSW 18:17:59 10° SSE visible
04 Aug 2.9 18:53:04 10° SSW 18:54:26 14° S 18:54:26 14° S visible
05 Aug 3.2 19:30:29 10° SW 19:31:18 16° SSW 19:31:18 16° SSW visible
06 Aug 2.2 18:32:26 10° SSW 18:34:58 21° SSE 18:35:59 18° SE visible
